TimeCDT,TemperatureF,Dew PointF,Humidity,Sea Level PressureIn,VisibilityMPH,Wind Direction,Wind SpeedMPH,Gust SpeedMPH,PrecipitationIn,Events,Conditions,WindDirDegrees,DateUTC
12:15 AM,56.3,32.7,41,29.80,10.0,South,17.3,-,N/A,,Clear,190,2012-10-09 05:15:00
12:35 AM,55.2,32.9,43,29.84,10.0,NNW,6.9,-,N/A,,Clear,340,2012-10-09 05:35:00
12:55 AM,54.0,32.5,44,29.84,10.0,West,3.5,-,N/A,,Clear,270,2012-10-09 05:55:00
1:15 AM,52.0,32.2,47,29.84,10.0,Calm,Calm,-,N/A,,Clear,0,2012-10-09 06:15:00
1:55 AM,50.5,33.1,51,29.85,10.0,South,4.6,-,N/A,,Clear,180,2012-10-09 06:55:00
2:15 AM,50.4,33.8,53,29.84,10.0,South,6.9,-,N/A,,Clear,180,2012-10-09 07:15:00
2:55 AM,50.5,34.2,53,29.84,10.0,South,5.8,-,N/A,,Clear,170,2012-10-09 07:55:00
3:15 AM,50.0,34.3,55,29.84,10.0,SSE,4.6,-,N/A,,Clear,160,2012-10-09 08:15:00
3:35 AM,49.3,34.3,56,29.84,10.0,South,3.5,-,N/A,,Clear,170,2012-10-09 08:35:00
3:55 AM,47.8,34.3,60,29.82,10.0,South,8.1,-,N/A,,Clear,180,2012-10-09 08:55:00
4:15 AM,49.5,35.1,58,29.81,10.0,South,9.2,-,N/A,,Clear,170,2012-10-09 09:15:00
4:35 AM,51.1,35.4,55,29.81,10.0,South,9.2,-,N/A,,Clear,180,2012-10-09 09:35:00
4:55 AM,51.8,35.6,54,29.81,10.0,South,11.5,-,N/A,,Clear,180,2012-10-09 09:55:00
5:15 AM,52.7,35.6,52,29.80,10.0,South,13.8,-,N/A,,Clear,180,2012-10-09 10:15:00
5:35 AM,52.7,35.2,52,29.80,10.0,South,13.8,-,N/A,,Clear,190,2012-10-09 10:35:00
5:55 AM,53.1,35.1,50,29.81,10.0,SSW,10.4,16.1,N/A,,Clear,200,2012-10-09 10:55:00
6:15 AM,51.8,35.1,53,29.83,10.0,SW,5.8,-,N/A,,Clear,220,2012-10-09 11:15:00
6:35 AM,51.8,35.1,53,29.84,10.0,SSW,6.9,-,N/A,,Clear,210,2012-10-09 11:35:00
6:55 AM,50.2,35.1,56,29.85,10.0,Calm,Calm,-,N/A,,Clear,0,2012-10-09 11:55:00
7:15 AM,50.0,35.2,57,29.85,10.0,WSW,4.6,-,N/A,,Clear,250,2012-10-09 12:15:00
7:35 AM,49.3,35.2,58,29.86,10.0,WSW,3.5,-,N/A,,Clear,250,2012-10-09 12:35:00
7:55 AM,49.1,35.2,59,29.87,10.0,WSW,3.5,-,N/A,,Clear,240,2012-10-09 12:55:00
8:15 AM,48.7,36.0,61,29.87,10.0,Calm,Calm,-,N/A,,Clear,0,2012-10-09 13:15:00
8:35 AM,49.6,36.5,61,29.87,10.0,West,3.5,-,N/A,,Clear,280,2012-10-09 13:35:00
8:55 AM,50.2,36.9,60,29.88,10.0,WNW,4.6,-,N/A,,Clear,290,2012-10-09 13:55:00
9:15 AM,51.8,37.2,58,29.88,10.0,NW,3.5,-,N/A,,Clear,320,2012-10-09 14:15:00
9:35 AM,52.7,38.1,58,29.89,10.0,NNW,4.6,-,N/A,,Clear,340,2012-10-09 14:35:00
9:55 AM,54.1,40.5,60,29.89,10.0,North,9.2,-,N/A,,Clear,360,2012-10-09 14:55:00
10:15 AM,54.5,41.4,61,29.90,10.0,North,9.2,18.4,N/A,,Clear,350,2012-10-09 15:15:00
10:35 AM,54.9,41.9,62,29.91,10.0,North,10.4,-,N/A,,Clear,350,2012-10-09 15:35:00
10:55 AM,54.7,42.3,63,29.93,10.0,North,12.7,26.5,N/A,,Clear,360,2012-10-09 15:55:00
11:15 AM,55.8,42.6,61,29.93,10.0,North,11.5,18.4,N/A,,Scattered Clouds,350,2012-10-09 16:15:00
11:35 AM,55.8,41.0,58,29.94,10.0,NNW,15.0,24.2,N/A,,Scattered Clouds,340,2012-10-09 16:35:00
11:55 AM,56.1,39.7,54,29.95,10.0,NNW,12.7,27.6,N/A,,Scattered Clouds,340,2012-10-09 16:55:00
12:15 PM,55.4,36.9,50,29.96,10.0,NNW,17.3,24.2,N/A,,Scattered Clouds,330,2012-10-09 17:15:00
12:35 PM,54.3,36.5,51,29.97,10.0,NNW,15.0,23.0,N/A,,Scattered Clouds,340,2012-10-09 17:35:00
12:55 PM,54.3,36.9,52,29.97,10.0,NNW,13.8,20.7,N/A,,Clear,330,2012-10-09 17:55:00
1:15 PM,54.3,34.5,47,29.97,10.0,NNW,13.8,20.7,N/A,,Clear,340,2012-10-09 18:15:00
1:35 PM,53.8,32.0,44,29.96,10.0,North,15.0,23.0,N/A,,Mostly Cloudy,350,2012-10-09 18:35:00
1:55 PM,54.1,30.4,40,29.97,10.0,NNW,11.5,20.7,N/A,,Scattered Clouds,340,2012-10-09 18:55:00
2:15 PM,55.6,27.1,34,29.96,10.0,NNW,12.7,20.7,N/A,,Scattered Clouds,340,2012-10-09 19:15:00
2:35 PM,55.6,23.5,29,29.96,10.0,NW,17.3,25.3,N/A,,Mostly Cloudy,320,2012-10-09 19:35:00
2:55 PM,54.5,23.5,30,29.97,10.0,NNW,15.0,21.9,N/A,,Mostly Cloudy,330,2012-10-09 19:55:00
3:15 PM,54.0,23.5,31,29.99,10.0,NNW,10.4,17.3,N/A,,Mostly Cloudy,340,2012-10-09 20:15:00
3:35 PM,53.1,24.1,32,29.99,10.0,NNW,8.1,-,N/A,,Overcast,340,2012-10-09 20:35:00
3:55 PM,53.8,22.5,30,29.99,10.0,NW,17.3,24.2,N/A,,Overcast,320,2012-10-09 20:55:00
4:15 PM,53.2,21.9,29,30.00,10.0,NNW,17.3,-,N/A,,Overcast,330,2012-10-09 21:15:00
4:35 PM,53.2,23.0,31,30.01,10.0,NNW,12.7,20.7,N/A,,Mostly Cloudy,340,2012-10-09 21:35:00
4:55 PM,52.7,23.4,32,30.01,10.0,NW,11.5,20.7,N/A,,Scattered Clouds,320,2012-10-09 21:55:00
5:15 PM,52.3,23.4,32,30.01,10.0,NW,8.1,-,N/A,,Clear,320,2012-10-09 22:15:00
5:35 PM,52.2,23.5,33,30.02,10.0,NNW,5.8,-,N/A,,Clear,330,2012-10-09 22:35:00
5:55 PM,52.7,23.9,33,30.02,10.0,NW,4.6,-,N/A,,Clear,320,2012-10-09 22:55:00
6:15 PM,50.2,23.7,36,30.02,10.0,NW,3.5,-,N/A,,Clear,310,2012-10-09 23:15:00
6:35 PM,50.4,23.9,36,30.02,10.0,WNW,3.5,-,N/A,,Clear,290,2012-10-09 23:35:00
6:55 PM,49.3,22.8,35,30.03,10.0,Calm,Calm,-,N/A,,Clear,0,2012-10-09 23:55:00
7:15 PM,48.0,23.0,37,30.03,10.0,West,3.5,-,N/A,,Clear,260,2012-10-10 00:15:00
7:35 PM,46.9,23.0,39,30.04,10.0,West,3.5,-,N/A,,Clear,280,2012-10-10 00:35:00
7:55 PM,45.5,23.0,41,30.05,10.0,WNW,5.8,-,N/A,,Clear,290,2012-10-10 00:55:00
8:15 PM,43.7,23.2,44,30.06,10.0,WNW,4.6,-,N/A,,Clear,300,2012-10-10 01:15:00
8:35 PM,41.2,23.9,50,30.07,10.0,NW,4.6,-,N/A,,Clear,310,2012-10-10 01:35:00
8:55 PM,43.7,22.8,44,30.08,10.0,NW,4.6,-,N/A,,Clear,310,2012-10-10 01:55:00
9:15 PM,43.2,23.2,45,30.09,10.0,NW,5.8,-,N/A,,Clear,310,2012-10-10 02:15:00
9:35 PM,42.8,23.2,46,30.10,10.0,NNW,3.5,-,N/A,,Clear,330,2012-10-10 02:35:00
9:55 PM,43.9,25.5,48,30.11,10.0,Calm,Calm,-,N/A,,Clear,0,2012-10-10 02:55:00
10:15 PM,44.6,27.0,50,30.12,10.0,North,5.8,-,N/A,,Clear,350,2012-10-10 03:15:00
10:35 PM,42.8,26.4,52,30.13,10.0,NNW,4.6,-,N/A,,Clear,340,2012-10-10 03:35:00
10:55 PM,42.6,26.4,53,30.14,10.0,NNW,3.5,-,N/A,,Clear,330,2012-10-10 03:55:00
11:15 PM,40.3,25.2,55,30.15,10.0,WNW,3.5,-,N/A,,Clear,300,2012-10-10 04:15:00
11:35 PM,40.1,25.5,56,30.15,10.0,Calm,Calm,-,N/A,,Clear,0,2012-10-10 04:35:00
11:55 PM,38.8,25.7,59,30.15,10.0,West,3.5,-,N/A,,Clear,280,2012-10-10 04:55:00